Year,Month,Day,Hour,Minute,Value (Times are PST for temperature in C)
2015,04,14,00,00,5.30
2015,04,14,00,01,5.30
2015,04,14,00,02,5.30
2015,04,14,00,03,5.30
2015,04,14,00,04,5.30
2015,04,14,00,05,5.30
2015,04,14,00,06,5.30
2015,04,14,00,07,5.30
2015,04,14,00,08,5.30
2015,04,14,00,09,5.30
2015,04,14,00,10,5.30
2015,04,14,00,11,5.30
2015,04,14,00,12,5.30
2015,04,14,00,13,5.30
2015,04,14,00,14,5.30
2015,04,14,00,15,5.30
2015,04,14,00,16,5.30
2015,04,14,00,17,5.30
2015,04,14,00,18,5.30
2015,04,14,00,19,5.20
2015,04,14,00,20,5.20
2015,04,14,00,21,5.20
2015,04,14,00,22,5.20
2015,04,14,00,23,5.20
2015,04,14,00,24,5.20
2015,04,14,00,25,5.20
2015,04,14,00,26,5.20
2015,04,14,00,27,5.20
2015,04,14,00,28,5.20
2015,04,14,00,29,5.20
2015,04,14,00,30,5.20
2015,04,14,00,31,5.20
2015,04,14,00,32,5.20
2015,04,14,00,33,5.20
2015,04,14,00,34,5.10
2015,04,14,00,35,5.10
2015,04,14,00,36,5.10
2015,04,14,00,37,5.10
2015,04,14,00,38,5.10
2015,04,14,00,39,5.10
2015,04,14,00,40,5.00
2015,04,14,00,41,5.00
2015,04,14,00,42,4.90
2015,04,14,00,43,4.90
2015,04,14,00,44,4.90
2015,04,14,00,45,4.90
2015,04,14,00,46,4.80
2015,04,14,00,47,4.80
2015,04,14,00,48,4.80
2015,04,14,00,49,4.80
2015,04,14,00,50,4.80
2015,04,14,00,51,4.70
2015,04,14,00,52,4.70
2015,04,14,00,53,4.70
2015,04,14,00,54,4.70
2015,04,14,00,55,4.70
2015,04,14,00,56,4.60
2015,04,14,00,57,4.60
2015,04,14,00,58,4.60
2015,04,14,00,59,4.60
2015,04,14,01,00,4.50
2015,04,14,01,01,4.50
2015,04,14,01,02,4.50
2015,04,14,01,03,4.50
2015,04,14,01,04,4.50
2015,04,14,01,05,4.40
2015,04,14,01,06,4.40
2015,04,14,01,07,4.40
2015,04,14,01,08,4.40
2015,04,14,01,09,4.40
2015,04,14,01,10,4.40
2015,04,14,01,11,4.30
2015,04,14,01,12,4.30
2015,04,14,01,13,4.30
2015,04,14,01,14,4.30
2015,04,14,01,15,4.30
2015,04,14,01,16,4.30
2015,04,14,01,17,4.30
2015,04,14,01,18,4.20
2015,04,14,01,19,4.20
2015,04,14,01,20,4.20
2015,04,14,01,21,4.20
2015,04,14,01,22,4.20
2015,04,14,01,23,4.20
2015,04,14,01,24,4.10
2015,04,14,01,25,4.10
2015,04,14,01,26,4.10
2015,04,14,01,27,4.10
2015,04,14,01,28,4.10
2015,04,14,01,29,4.10
2015,04,14,01,30,4.00
2015,04,14,01,31,4.00
2015,04,14,01,32,4.00
2015,04,14,01,33,4.00
2015,04,14,01,34,3.90
2015,04,14,01,35,3.90
2015,04,14,01,36,3.90
2015,04,14,01,37,3.90
2015,04,14,01,38,3.90
2015,04,14,01,39,3.80
2015,04,14,01,40,3.80
2015,04,14,01,41,3.80
2015,04,14,01,42,3.80
2015,04,14,01,43,3.80
2015,04,14,01,44,3.70
2015,04,14,01,45,3.70
2015,04,14,01,46,3.70
2015,04,14,01,47,3.70
2015,04,14,01,48,3.70
2015,04,14,01,49,3.70
2015,04,14,01,50,3.60
2015,04,14,01,51,3.60
2015,04,14,01,52,3.60
2015,04,14,01,53,3.60
2015,04,14,01,54,3.60
2015,04,14,01,55,3.50
2015,04,14,01,56,3.50
2015,04,14,01,57,3.50
2015,04,14,01,58,3.50
2015,04,14,01,59,3.40
2015,04,14,02,00,3.40
2015,04,14,02,01,3.40
2015,04,14,02,02,3.40
2015,04,14,02,03,3.30
2015,04,14,02,04,3.30
2015,04,14,02,05,3.30
2015,04,14,02,06,3.30
2015,04,14,02,07,3.30
2015,04,14,02,08,3.30
2015,04,14,02,09,3.30
2015,04,14,02,10,3.30
2015,04,14,02,11,3.20
2015,04,14,02,12,3.20
2015,04,14,02,13,3.20
2015,04,14,02,14,3.20
2015,04,14,02,15,3.20
2015,04,14,02,16,3.20
2015,04,14,02,17,3.10
2015,04,14,02,18,3.10
2015,04,14,02,19,3.10
2015,04,14,02,20,3.10
2015,04,14,02,21,3.10
2015,04,14,02,22,3.10
2015,04,14,02,23,3.10
2015,04,14,02,24,3.10
2015,04,14,02,25,3.00
2015,04,14,02,26,3.00
2015,04,14,02,27,3.00
2015,04,14,02,28,2.90
2015,04,14,02,29,2.90
2015,04,14,02,30,2.90
2015,04,14,02,31,2.90
2015,04,14,02,32,2.80
2015,04,14,02,33,2.80
2015,04,14,02,34,2.80
2015,04,14,02,35,2.80
2015,04,14,02,36,2.70
2015,04,14,02,37,2.70
2015,04,14,02,38,2.70
2015,04,14,02,39,2.60
2015,04,14,02,40,2.60
2015,04,14,02,41,2.60
2015,04,14,02,42,2.60
2015,04,14,02,43,2.50
2015,04,14,02,44,2.50
2015,04,14,02,45,2.40
2015,04,14,02,46,2.40
2015,04,14,02,47,2.40
2015,04,14,02,48,2.40
2015,04,14,02,49,2.30
2015,04,14,02,50,2.30
2015,04,14,02,51,2.30
2015,04,14,02,52,2.30
2015,04,14,02,53,2.30
2015,04,14,02,54,2.30
2015,04,14,02,55,2.30
2015,04,14,02,56,2.20
2015,04,14,02,57,2.20
2015,04,14,02,58,2.20
2015,04,14,02,59,2.10
2015,04,14,03,00,2.10
2015,04,14,03,01,2.10
2015,04,14,03,02,2.00
2015,04,14,03,03,2.00
2015,04,14,03,04,2.00
2015,04,14,03,05,1.90
2015,04,14,03,06,1.90
2015,04,14,03,07,1.90
2015,04,14,03,08,1.90
2015,04,14,03,09,1.90
2015,04,14,03,10,1.90
2015,04,14,03,11,1.90
2015,04,14,03,12,1.90
2015,04,14,03,13,1.90
2015,04,14,03,14,1.90
2015,04,14,03,15,1.90
2015,04,14,03,16,1.90
2015,04,14,03,17,1.90
2015,04,14,03,18,1.90
2015,04,14,03,19,1.90
2015,04,14,03,20,1.90
2015,04,14,03,21,1.90
2015,04,14,03,22,1.90
2015,04,14,03,23,1.90
2015,04,14,03,24,1.80
2015,04,14,03,25,1.80
2015,04,14,03,26,1.80
2015,04,14,03,27,1.80
2015,04,14,03,28,1.70
2015,04,14,03,29,1.70
2015,04,14,03,30,1.70
2015,04,14,03,31,1.70
2015,04,14,03,32,1.70
2015,04,14,03,33,1.60
2015,04,14,03,34,1.60
2015,04,14,03,35,1.60
2015,04,14,03,36,1.50
2015,04,14,03,37,1.50
2015,04,14,03,38,1.40
2015,04,14,03,39,1.40
2015,04,14,03,40,1.30
2015,04,14,03,41,1.30
2015,04,14,03,42,1.30
2015,04,14,03,43,1.30
2015,04,14,03,44,1.30
2015,04,14,03,45,1.30
2015,04,14,03,46,1.30
2015,04,14,03,47,1.30
2015,04,14,03,48,1.30
2015,04,14,03,49,1.30
2015,04,14,03,50,1.30
2015,04,14,03,51,1.30
2015,04,14,03,52,1.30
2015,04,14,03,53,1.20
2015,04,14,03,54,1.20
2015,04,14,03,55,1.20
2015,04,14,03,56,1.20
2015,04,14,03,57,1.20
2015,04,14,03,58,1.20
2015,04,14,03,59,1.30
2015,04,14,04,00,1.30
2015,04,14,04,01,1.30
2015,04,14,04,02,1.30
2015,04,14,04,03,1.30
2015,04,14,04,04,1.30
2015,04,14,04,05,1.30
2015,04,14,04,06,1.30
2015,04,14,04,07,1.30
2015,04,14,04,08,1.30
2015,04,14,04,09,1.30
2015,04,14,04,10,1.30
2015,04,14,04,11,1.30
2015,04,14,04,12,1.30
2015,04,14,04,13,1.30
2015,04,14,04,14,1.30
2015,04,14,04,15,1.30
2015,04,14,04,16,1.30
2015,04,14,04,17,1.30
2015,04,14,04,18,1.30
2015,04,14,04,19,1.30
2015,04,14,04,20,1.30
2015,04,14,04,21,1.30
2015,04,14,04,22,1.30
2015,04,14,04,23,1.20
2015,04,14,04,24,1.20
2015,04,14,04,25,1.20
2015,04,14,04,26,1.20
2015,04,14,04,27,1.20
2015,04,14,04,28,1.20
2015,04,14,04,29,1.10
2015,04,14,04,30,1.10
2015,04,14,04,31,1.10
2015,04,14,04,32,1.10
2015,04,14,04,33,1.10
2015,04,14,04,34,1.10
2015,04,14,04,35,1.10
2015,04,14,04,36,1.10
2015,04,14,04,37,1.10
2015,04,14,04,38,1.10
2015,04,14,04,39,1.10
2015,04,14,04,40,1.10
2015,04,14,04,41,1.10
2015,04,14,04,42,1.10
2015,04,14,04,43,1.10
2015,04,14,04,44,1.10
2015,04,14,04,45,1.10
2015,04,14,04,46,1.10
2015,04,14,04,47,1.10
2015,04,14,04,48,1.10
2015,04,14,04,49,1.10
2015,04,14,04,50,1.00
2015,04,14,04,51,1.00
2015,04,14,04,52,0.90
2015,04,14,04,53,0.90
2015,04,14,04,54,0.80
2015,04,14,04,55,0.80
2015,04,14,04,56,0.70
2015,04,14,04,57,0.70
2015,04,14,04,58,0.70
2015,04,14,04,59,0.70
2015,04,14,05,00,0.70
2015,04,14,05,01,0.60
2015,04,14,05,02,0.60
2015,04,14,05,03,0.60
2015,04,14,05,04,0.60
2015,04,14,05,05,0.60
2015,04,14,05,06,0.50
2015,04,14,05,07,0.50
2015,04,14,05,08,0.50
2015,04,14,05,09,0.40
2015,04,14,05,10,0.40
2015,04,14,05,11,0.40
2015,04,14,05,12,0.40
2015,04,14,05,13,0.40
2015,04,14,05,14,0.40
2015,04,14,05,15,0.40
2015,04,14,05,16,0.30
2015,04,14,05,17,0.30
2015,04,14,05,18,0.30
2015,04,14,05,19,0.30
2015,04,14,05,20,0.30
2015,04,14,05,21,0.30
2015,04,14,05,22,0.30
2015,04,14,05,23,0.30
2015,04,14,05,24,0.30
2015,04,14,05,25,0.20
2015,04,14,05,26,0.20
2015,04,14,05,27,0.20
2015,04,14,05,28,0.20
2015,04,14,05,29,0.20
2015,04,14,05,30,0.20
2015,04,14,05,31,0.20
2015,04,14,05,32,0.10
2015,04,14,05,33,0.10
2015,04,14,05,34,0.10
2015,04,14,05,35,0.00
2015,04,14,05,36,0.00
2015,04,14,05,37,0.00
2015,04,14,05,38,0.00
2015,04,14,05,39,0.00
2015,04,14,05,40,0.00
2015,04,14,05,41,0.00
2015,04,14,05,42,0.10
2015,04,14,05,43,0.10
2015,04,14,05,44,0.10
2015,04,14,05,45,0.20
2015,04,14,05,46,0.20
2015,04,14,05,47,0.20
2015,04,14,05,48,0.20
2015,04,14,05,49,0.20
2015,04,14,05,50,0.20
2015,04,14,05,51,0.20
2015,04,14,05,52,0.10
2015,04,14,05,53,0.10
2015,04,14,05,54,0.10
2015,04,14,05,55,0.10
2015,04,14,05,56,0.10
2015,04,14,05,57,0.10
2015,04,14,05,58,0.10
2015,04,14,05,59,0.10
2015,04,14,06,00,0.10
2015,04,14,06,01,0.10
2015,04,14,06,02,0.20
2015,04,14,06,03,0.20
2015,04,14,06,04,0.20
2015,04,14,06,05,0.20
2015,04,14,06,06,0.20
2015,04,14,06,07,0.20
2015,04,14,06,08,0.10
2015,04,14,06,09,0.10
2015,04,14,06,10,0.10
2015,04,14,06,11,0.10
2015,04,14,06,12,0.10
2015,04,14,06,13,0.10
2015,04,14,06,14,0.10
2015,04,14,06,15,0.00
2015,04,14,06,16,0.00
2015,04,14,06,17,0.00
2015,04,14,06,18,0.00
2015,04,14,06,19,-0.10
2015,04,14,06,20,-0.10
2015,04,14,06,21,-0.10
2015,04,14,06,22,-0.10
2015,04,14,06,23,-0.10
2015,04,14,06,24,-0.10
2015,04,14,06,25,-0.10
2015,04,14,06,26,-0.10
2015,04,14,06,27,-0.10
2015,04,14,06,28,-0.10
2015,04,14,06,29,-0.10
2015,04,14,06,30,-0.10
2015,04,14,06,31,-0.10
2015,04,14,06,32,-0.10
2015,04,14,06,33,-0.10
2015,04,14,06,34,-0.10
2015,04,14,06,35,-0.10
2015,04,14,06,36,-0.10
2015,04,14,06,37,-0.10
2015,04,14,06,38,-0.10
2015,04,14,06,39,0.00
2015,04,14,06,40,0.00
2015,04,14,06,41,0.00
2015,04,14,06,42,0.00
2015,04,14,06,43,-0.10
2015,04,14,06,44,-0.10
2015,04,14,06,45,-0.10
2015,04,14,06,46,-0.10
2015,04,14,06,47,-0.10
2015,04,14,06,48,-0.10
2015,04,14,06,49,-0.10
2015,04,14,06,50,-0.10
2015,04,14,06,51,-0.10
2015,04,14,06,52,-0.20
2015,04,14,06,53,-0.20
2015,04,14,06,54,-0.20
2015,04,14,06,55,-0.20
2015,04,14,06,56,-0.20
2015,04,14,06,57,-0.20
2015,04,14,06,58,-0.10
2015,04,14,06,59,-0.10
2015,04,14,07,00,-0.10
2015,04,14,07,01,-0.10
2015,04,14,07,02,-0.20
2015,04,14,07,03,-0.20
2015,04,14,07,04,-0.20
2015,04,14,07,05,-0.20
2015,04,14,07,06,-0.10
2015,04,14,07,07,-0.10
2015,04,14,07,08,-0.10
2015,04,14,07,09,-0.10
2015,04,14,07,10,0.00
2015,04,14,07,11,0.00
2015,04,14,07,12,0.10
2015,04,14,07,13,0.10
2015,04,14,07,14,0.10
2015,04,14,07,15,0.10
2015,04,14,07,16,0.20
2015,04,14,07,17,0.20
2015,04,14,07,18,0.20
2015,04,14,07,19,0.20
2015,04,14,07,20,0.20
2015,04,14,07,21,0.20
2015,04,14,07,22,0.30
2015,04,14,07,23,0.30
2015,04,14,07,24,0.30
2015,04,14,07,25,0.40
2015,04,14,07,26,0.50
2015,04,14,07,27,0.50
2015,04,14,07,28,0.60
2015,04,14,07,29,0.60
2015,04,14,07,30,0.70
2015,04,14,07,31,0.70
2015,04,14,07,32,0.80
2015,04,14,07,33,0.90
2015,04,14,07,34,1.00
2015,04,14,07,35,1.10
2015,04,14,07,36,1.20
2015,04,14,07,37,1.30
2015,04,14,07,38,1.30
2015,04,14,07,39,1.30
2015,04,14,07,40,1.30
2015,04,14,07,41,1.40
2015,04,14,07,42,1.40
2015,04,14,07,43,1.40
2015,04,14,07,44,1.50
2015,04,14,07,45,1.50
2015,04,14,07,46,1.50
2015,04,14,07,47,1.60
2015,04,14,07,48,1.70
2015,04,14,07,49,1.70
2015,04,14,07,50,1.80
2015,04,14,07,51,1.90
2015,04,14,07,52,2.00
2015,04,14,07,53,2.10
2015,04,14,07,54,2.20
2015,04,14,07,55,2.30
2015,04,14,07,56,2.40
2015,04,14,07,57,2.60
2015,04,14,07,58,2.70
2015,04,14,07,59,2.80
2015,04,14,08,00,2.90
2015,04,14,08,01,3.00
2015,04,14,08,02,3.20
2015,04,14,08,03,3.30
2015,04,14,08,04,3.40
2015,04,14,08,05,3.50
2015,04,14,08,06,3.50
2015,04,14,08,07,3.60
2015,04,14,08,08,3.70
2015,04,14,08,09,3.80
2015,04,14,08,10,3.90
2015,04,14,08,11,4.10
2015,04,14,08,12,4.20
2015,04,14,08,13,4.20
2015,04,14,08,14,4.30
2015,04,14,08,15,4.50
2015,04,14,08,16,4.50
2015,04,14,08,17,4.60
2015,04,14,08,18,4.70
2015,04,14,08,19,4.80
2015,04,14,08,20,4.90
2015,04,14,08,21,5.10
2015,04,14,08,22,5.10
2015,04,14,08,23,5.20
2015,04,14,08,24,5.20
2015,04,14,08,25,5.30
2015,04,14,08,26,5.40
2015,04,14,08,27,5.50
2015,04,14,08,28,5.60
2015,04,14,08,29,5.70
2015,04,14,08,30,5.70
2015,04,14,08,31,5.80
2015,04,14,08,32,5.80
2015,04,14,08,33,5.90
2015,04,14,08,34,6.00
2015,04,14,08,35,6.10
2015,04,14,08,36,6.20
2015,04,14,08,37,6.30
2015,04,14,08,38,6.40
2015,04,14,08,39,6.40
2015,04,14,08,40,6.40
2015,04,14,08,41,6.40
2015,04,14,08,42,6.40
2015,04,14,08,43,6.40
2015,04,14,08,44,6.40
2015,04,14,08,45,6.50
2015,04,14,08,46,6.50
2015,04,14,08,47,6.50
2015,04,14,08,48,6.60
2015,04,14,08,49,6.60
2015,04,14,08,50,6.70
2015,04,14,08,51,6.70
2015,04,14,08,52,6.70
2015,04,14,08,53,6.70
2015,04,14,08,54,6.70
2015,04,14,08,55,6.70
2015,04,14,08,56,6.70
2015,04,14,08,57,6.70
2015,04,14,08,58,6.80
2015,04,14,08,59,6.80
2015,04,14,09,00,6.90
2015,04,14,09,01,7.00
2015,04,14,09,02,7.20
2015,04,14,09,03,7.20
2015,04,14,09,04,7.30
2015,04,14,09,05,7.40
2015,04,14,09,06,7.40
2015,04,14,09,07,7.50
2015,04,14,09,08,7.60
2015,04,14,09,09,7.60
2015,04,14,09,10,7.60
2015,04,14,09,11,7.70
2015,04,14,09,12,7.70
2015,04,14,09,13,7.80
2015,04,14,09,14,7.80
2015,04,14,09,15,7.90
2015,04,14,09,16,7.90
2015,04,14,09,17,8.00
2015,04,14,09,18,8.00
2015,04,14,09,19,8.10
2015,04,14,09,20,8.10
2015,04,14,09,21,8.10
2015,04,14,09,22,8.10
2015,04,14,09,23,8.20
2015,04,14,09,24,8.20
2015,04,14,09,25,8.30
2015,04,14,09,26,8.40
2015,04,14,09,27,8.50
2015,04,14,09,28,8.60
2015,04,14,09,29,8.70
2015,04,14,09,30,8.80
2015,04,14,09,31,8.80
2015,04,14,09,32,8.80
2015,04,14,09,33,8.80
2015,04,14,09,34,8.80
2015,04,14,09,35,8.80
2015,04,14,09,36,8.70
2015,04,14,09,37,8.60
2015,04,14,09,38,8.60
2015,04,14,09,39,8.50
2015,04,14,09,40,8.40
2015,04,14,09,41,8.40
2015,04,14,09,42,8.30
2015,04,14,09,43,8.20
2015,04,14,09,44,8.20
2015,04,14,09,45,8.20
2015,04,14,09,46,8.10
2015,04,14,09,47,8.10
2015,04,14,09,48,8.10
2015,04,14,09,49,8.10
2015,04,14,09,50,8.10
2015,04,14,09,51,8.10
2015,04,14,09,52,8.10
2015,04,14,09,53,8.20
2015,04,14,09,54,8.20
2015,04,14,09,55,8.20
2015,04,14,09,56,8.20
2015,04,14,09,57,8.20
2015,04,14,09,58,8.20
2015,04,14,09,59,8.10
2015,04,14,10,00,8.10
2015,04,14,10,01,8.10
2015,04,14,10,02,8.10
2015,04,14,10,03,8.10
2015,04,14,10,04,8.10
2015,04,14,10,05,8.10
2015,04,14,10,06,8.10
2015,04,14,10,07,8.10
2015,04,14,10,08,8.20
2015,04,14,10,09,8.20
2015,04,14,10,10,8.20
2015,04,14,10,11,8.30
2015,04,14,10,12,8.30
2015,04,14,10,13,8.30
2015,04,14,10,14,8.40
2015,04,14,10,15,8.40
2015,04,14,10,16,8.50
2015,04,14,10,17,8.50
2015,04,14,10,18,8.50
2015,04,14,10,19,8.40
2015,04,14,10,20,8.40
2015,04,14,10,21,8.40
2015,04,14,10,22,8.40
2015,04,14,10,23,8.40
2015,04,14,10,24,8.50
2015,04,14,10,25,8.40
2015,04,14,10,26,8.40
2015,04,14,10,27,8.40
2015,04,14,10,28,8.40
2015,04,14,10,29,8.40
2015,04,14,10,30,8.40
2015,04,14,10,31,8.40
2015,04,14,10,32,8.40
2015,04,14,10,33,8.50
2015,04,14,10,34,8.60
2015,04,14,10,35,8.60
2015,04,14,10,36,8.60
2015,04,14,10,37,8.60
2015,04,14,10,38,8.60
2015,04,14,10,39,8.50
2015,04,14,10,40,8.50
2015,04,14,10,41,8.60
2015,04,14,10,42,8.60
2015,04,14,10,43,8.70
2015,04,14,10,44,8.70
2015,04,14,10,45,8.70
2015,04,14,10,46,8.60
2015,04,14,10,47,8.50
2015,04,14,10,48,8.50
2015,04,14,10,49,8.50
2015,04,14,10,50,8.40
2015,04,14,10,51,8.50
2015,04,14,10,52,8.50
2015,04,14,10,53,8.50
2015,04,14,10,54,8.60
2015,04,14,10,55,8.60
2015,04,14,10,56,8.70
2015,04,14,10,57,8.80
2015,04,14,10,58,8.80
2015,04,14,10,59,8.80
2015,04,14,11,00,8.90
2015,04,14,11,01,8.90
2015,04,14,11,02,8.90
2015,04,14,11,03,8.90
2015,04,14,11,04,8.90
2015,04,14,11,05,8.90
2015,04,14,11,06,9.00
2015,04,14,11,07,9.00
2015,04,14,11,08,9.00
2015,04,14,11,09,8.90
2015,04,14,11,10,8.90
2015,04,14,11,11,8.90
2015,04,14,11,12,8.90
2015,04,14,11,13,8.90
2015,04,14,11,14,8.90
2015,04,14,11,15,8.90
2015,04,14,11,16,8.90
2015,04,14,11,17,8.90
2015,04,14,11,18,8.90
2015,04,14,11,19,8.90
2015,04,14,11,20,8.90
2015,04,14,11,21,8.90
2015,04,14,11,22,8.90
2015,04,14,11,23,8.90
2015,04,14,11,24,9.00
2015,04,14,11,25,9.00
2015,04,14,11,26,9.10
2015,04,14,11,27,9.10
2015,04,14,11,28,9.10
2015,04,14,11,29,9.20
2015,04,14,11,30,9.20
2015,04,14,11,31,9.20
2015,04,14,11,32,9.30
2015,04,14,11,33,9.30
2015,04,14,11,34,9.20
2015,04,14,11,35,9.20
2015,04,14,11,36,9.10
2015,04,14,11,37,9.10
2015,04,14,11,38,9.10
2015,04,14,11,39,9.10
2015,04,14,11,40,9.10
2015,04,14,11,41,9.10
2015,04,14,11,42,9.00
2015,04,14,11,43,9.10
2015,04,14,11,44,9.10
2015,04,14,11,45,9.20
2015,04,14,11,46,9.30
2015,04,14,11,47,9.40
2015,04,14,11,48,9.40
2015,04,14,11,49,9.50
2015,04,14,11,50,9.60
2015,04,14,11,51,9.60
2015,04,14,11,52,9.60
2015,04,14,11,53,9.60
2015,04,14,11,54,9.70
2015,04,14,11,55,9.70
2015,04,14,11,56,9.70
2015,04,14,11,57,9.80
2015,04,14,11,58,9.90
2015,04,14,11,59,10.00
2015,04,14,12,00,10.00
2015,04,14,12,01,10.10
2015,04,14,12,02,10.10
2015,04,14,12,03,10.10
2015,04,14,12,04,10.00
2015,04,14,12,05,9.90
2015,04,14,12,06,9.90
2015,04,14,12,07,9.90
2015,04,14,12,08,9.90
2015,04,14,12,09,10.00
2015,04,14,12,10,10.00
2015,04,14,12,11,10.00
2015,04,14,12,12,10.10
2015,04,14,12,13,10.10
2015,04,14,12,14,10.00
2015,04,14,12,15,9.90
2015,04,14,12,16,9.90
2015,04,14,12,17,9.80
2015,04,14,12,18,9.80
2015,04,14,12,19,9.80
2015,04,14,12,20,9.80
2015,04,14,12,21,9.80
2015,04,14,12,22,9.80
2015,04,14,12,23,9.80
2015,04,14,12,24,9.80
2015,04,14,12,25,9.90
2015,04,14,12,26,10.00
2015,04,14,12,27,10.00
2015,04,14,12,28,10.10
2015,04,14,12,29,10.20
2015,04,14,12,30,10.20
2015,04,14,12,31,10.10
2015,04,14,12,32,10.00
2015,04,14,12,33,10.00
2015,04,14,12,34,9.90
2015,04,14,12,35,9.90
2015,04,14,12,36,10.00
2015,04,14,12,37,10.00
2015,04,14,12,38,10.10
2015,04,14,12,39,10.10
2015,04,14,12,40,10.20
2015,04,14,12,41,10.30
2015,04,14,12,42,10.30
2015,04,14,12,43,10.30
2015,04,14,12,44,10.30
2015,04,14,12,45,10.20
2015,04,14,12,46,10.20
2015,04,14,12,47,10.30
2015,04,14,12,48,10.30
2015,04,14,12,49,10.30
2015,04,14,12,50,10.30
2015,04,14,12,51,10.30
2015,04,14,12,52,10.20
2015,04,14,12,53,10.10
2015,04,14,12,54,10.10
2015,04,14,12,55,10.00
2015,04,14,12,56,9.90
2015,04,14,12,57,9.90
2015,04,14,12,58,9.80
2015,04,14,12,59,9.70
2015,04,14,13,00,9.60
2015,04,14,13,01,9.50
2015,04,14,13,02,9.40
2015,04,14,13,03,9.40
2015,04,14,13,04,9.40
2015,04,14,13,05,9.40
2015,04,14,13,06,9.40
2015,04,14,13,07,9.40
2015,04,14,13,08,9.40
2015,04,14,13,09,9.50
2015,04,14,13,10,9.50
2015,04,14,13,11,9.50
2015,04,14,13,12,9.40
2015,04,14,13,13,9.40
2015,04,14,13,14,9.50
2015,04,14,13,15,9.50
2015,04,14,13,16,9.60
2015,04,14,13,17,9.60
2015,04,14,13,18,9.70
2015,04,14,13,19,9.70
2015,04,14,13,20,9.80
2015,04,14,13,21,9.80
2015,04,14,13,22,9.80
2015,04,14,13,23,9.90
2015,04,14,13,24,9.90
2015,04,14,13,25,9.90
2015,04,14,13,26,10.00
2015,04,14,13,27,10.00
2015,04,14,13,28,10.20
2015,04,14,13,29,10.30
2015,04,14,13,30,10.30
2015,04,14,13,31,10.30
2015,04,14,13,32,10.30
2015,04,14,13,33,10.40
2015,04,14,13,34,10.30
2015,04,14,13,35,10.20
2015,04,14,13,36,10.10
2015,04,14,13,37,10.00
2015,04,14,13,38,9.90
2015,04,14,13,39,9.90
2015,04,14,13,40,10.00
2015,04,14,13,41,10.00
2015,04,14,13,42,10.10
2015,04,14,13,43,10.20
2015,04,14,13,44,10.20
2015,04,14,13,45,10.30
2015,04,14,13,46,10.30
2015,04,14,13,47,10.30
2015,04,14,13,48,10.30
2015,04,14,13,49,10.30
2015,04,14,13,50,10.30
2015,04,14,13,51,10.30
2015,04,14,13,52,10.30
2015,04,14,13,53,10.40
2015,04,14,13,54,10.40
2015,04,14,13,55,10.50
2015,04,14,13,56,10.50
2015,04,14,13,57,10.60
2015,04,14,13,58,10.60
2015,04,14,13,59,10.60
2015,04,14,14,00,10.60
2015,04,14,14,01,10.60
2015,04,14,14,02,10.60
2015,04,14,14,03,10.60
2015,04,14,14,04,10.50
2015,04,14,14,05,10.40
2015,04,14,14,06,10.40
2015,04,14,14,07,10.40
2015,04,14,14,08,10.40
2015,04,14,14,09,10.40
2015,04,14,14,10,10.40
2015,04,14,14,11,10.30
2015,04,14,14,12,10.20
2015,04,14,14,13,10.10
2015,04,14,14,14,10.00
2015,04,14,14,15,9.90
2015,04,14,14,16,9.80
2015,04,14,14,17,9.80
2015,04,14,14,18,9.70
2015,04,14,14,19,9.60
2015,04,14,14,20,9.50
2015,04,14,14,21,9.50
2015,04,14,14,22,9.40
2015,04,14,14,23,9.40
2015,04,14,14,24,9.40
2015,04,14,14,25,9.40
2015,04,14,14,26,9.30
2015,04,14,14,27,9.30
2015,04,14,14,28,9.30
2015,04,14,14,29,9.30
2015,04,14,14,30,9.30
2015,04,14,14,31,9.30
2015,04,14,14,32,9.30
2015,04,14,14,33,9.30
2015,04,14,14,34,9.20
2015,04,14,14,35,9.20
2015,04,14,14,36,9.20
2015,04,14,14,37,9.20
2015,04,14,14,38,9.10
2015,04,14,14,39,9.10
2015,04,14,14,40,9.10
2015,04,14,14,41,9.10
2015,04,14,14,42,9.10
2015,04,14,14,43,9.10
2015,04,14,14,44,9.10
2015,04,14,14,45,9.10
2015,04,14,14,46,9.20
2015,04,14,14,47,9.30
2015,04,14,14,48,9.40
2015,04,14,14,49,9.50
2015,04,14,14,50,9.60
2015,04,14,14,51,9.70
2015,04,14,14,52,9.90
2015,04,14,14,53,10.00
2015,04,14,14,54,10.20
2015,04,14,14,55,10.30
2015,04,14,14,56,10.30
2015,04,14,14,57,10.30
2015,04,14,14,58,10.30
2015,04,14,14,59,10.20
2015,04,14,15,00,10.10
2015,04,14,15,01,10.10
2015,04,14,15,02,10.10
2015,04,14,15,03,10.10
2015,04,14,15,04,10.10
2015,04,14,15,05,10.10
2015,04,14,15,06,10.10
2015,04,14,15,07,10.10
2015,04,14,15,08,10.00
2015,04,14,15,09,10.00
2015,04,14,15,10,10.00
2015,04,14,15,11,9.90
2015,04,14,15,12,9.90
2015,04,14,15,13,9.80
2015,04,14,15,14,9.80
2015,04,14,15,15,9.80
2015,04,14,15,16,9.80
2015,04,14,15,17,9.80
2015,04,14,15,18,9.70
2015,04,14,15,19,9.70
2015,04,14,15,20,9.70
2015,04,14,15,21,9.70
2015,04,14,15,22,9.70
2015,04,14,15,23,9.70
2015,04,14,15,24,9.70
2015,04,14,15,25,9.70
2015,04,14,15,26,9.70
2015,04,14,15,27,9.70
2015,04,14,15,28,9.80
2015,04,14,15,29,9.80
2015,04,14,15,30,9.80
2015,04,14,15,31,9.80
2015,04,14,15,32,9.80
2015,04,14,15,33,9.90
2015,04,14,15,34,9.90
2015,04,14,15,35,10.00
2015,04,14,15,36,10.10
2015,04,14,15,37,10.20
2015,04,14,15,38,10.40
2015,04,14,15,39,10.50
2015,04,14,15,40,10.60
2015,04,14,15,41,10.70
2015,04,14,15,42,10.80
2015,04,14,15,43,10.80
2015,04,14,15,44,10.80
2015,04,14,15,45,10.70
2015,04,14,15,46,10.60
2015,04,14,15,47,10.50
2015,04,14,15,48,10.40
2015,04,14,15,49,10.40
2015,04,14,15,50,10.40
2015,04,14,15,51,10.40
2015,04,14,15,52,10.40
2015,04,14,15,53,10.40
2015,04,14,15,54,10.30
2015,04,14,15,55,10.30
2015,04,14,15,56,10.30
2015,04,14,15,57,10.20
2015,04,14,15,58,10.20
2015,04,14,15,59,10.20
2015,04,14,16,00,10.20
2015,04,14,16,01,10.30
2015,04,14,16,02,10.40
2015,04,14,16,03,10.60
2015,04,14,16,04,10.70
2015,04,14,16,05,10.80
2015,04,14,16,06,10.90
2015,04,14,16,07,10.90
2015,04,14,16,08,10.90
2015,04,14,16,09,10.90
2015,04,14,16,10,10.90
2015,04,14,16,11,10.90
2015,04,14,16,12,10.90
2015,04,14,16,13,10.90
2015,04,14,16,14,10.90
2015,04,14,16,15,10.90
2015,04,14,16,16,10.90
2015,04,14,16,17,10.90
2015,04,14,16,18,11.00
2015,04,14,16,19,11.00
2015,04,14,16,20,10.90
2015,04,14,16,21,10.90
2015,04,14,16,22,10.90
2015,04,14,16,23,10.90
2015,04,14,16,24,10.90
2015,04,14,16,25,11.00
2015,04,14,16,26,11.10
2015,04,14,16,27,11.20
2015,04,14,16,28,11.20
2015,04,14,16,29,11.30
2015,04,14,16,30,11.40
2015,04,14,16,31,11.40
2015,04,14,16,32,11.40
2015,04,14,16,33,11.30
2015,04,14,16,34,11.10
2015,04,14,16,35,11.00
2015,04,14,16,36,10.90
2015,04,14,16,37,10.80
2015,04,14,16,38,10.80
2015,04,14,16,39,10.80
2015,04,14,16,40,10.80
2015,04,14,16,41,10.90
2015,04,14,16,42,10.80
2015,04,14,16,43,10.80
2015,04,14,16,44,10.80
2015,04,14,16,45,10.80
2015,04,14,16,46,10.80
2015,04,14,16,47,10.80
2015,04,14,16,48,10.80
2015,04,14,16,49,10.80
2015,04,14,16,50,10.70
2015,04,14,16,51,10.70
2015,04,14,16,52,10.70
2015,04,14,16,53,10.70
2015,04,14,16,54,10.70
2015,04,14,16,55,10.70
2015,04,14,16,56,10.60
2015,04,14,16,57,10.60
2015,04,14,16,58,10.60
2015,04,14,16,59,10.60
2015,04,14,17,00,10.60
2015,04,14,17,01,10.50
2015,04,14,17,02,10.50
2015,04,14,17,03,10.50
2015,04,14,17,04,10.50
2015,04,14,17,05,10.60
2015,04,14,17,06,10.60
2015,04,14,17,07,10.60
2015,04,14,17,08,10.60
2015,04,14,17,09,10.60
2015,04,14,17,10,10.60
2015,04,14,17,11,10.60
2015,04,14,17,12,10.60
2015,04,14,17,13,10.70
2015,04,14,17,14,10.70
2015,04,14,17,15,10.70
2015,04,14,17,16,10.60
2015,04,14,17,17,10.60
2015,04,14,17,18,10.50
2015,04,14,17,19,10.40
2015,04,14,17,20,10.30
2015,04,14,17,21,10.20
2015,04,14,17,22,10.10
2015,04,14,17,23,10.10
2015,04,14,17,24,10.00
2015,04,14,17,25,9.90
2015,04,14,17,26,9.90
2015,04,14,17,27,9.80
2015,04,14,17,28,9.80
2015,04,14,17,29,9.80
2015,04,14,17,30,9.80
2015,04,14,17,31,9.80
2015,04,14,17,32,9.80
2015,04,14,17,33,9.80
2015,04,14,17,34,9.80
2015,04,14,17,35,9.80
2015,04,14,17,36,9.80
2015,04,14,17,37,9.80
2015,04,14,17,38,9.80
2015,04,14,17,39,9.80
2015,04,14,17,40,9.80
2015,04,14,17,41,9.80
2015,04,14,17,42,9.80
2015,04,14,17,43,9.80
2015,04,14,17,44,9.70
2015,04,14,17,45,9.70
2015,04,14,17,46,9.70
2015,04,14,17,47,9.70
2015,04,14,17,48,9.70
2015,04,14,17,49,9.70
2015,04,14,17,50,9.70
2015,04,14,17,51,9.70
2015,04,14,17,52,9.70
2015,04,14,17,53,9.70
2015,04,14,17,54,9.70